Weather in Kamyshlov

Russia / Sverdlovsk Oblast     56°50′47″N   62°42′44″E
temp.,
°C
wind,
m/s
gust,
m/s
humid.,
%
clouds,
%
prec.,
mm/h
press.,
hPa
HPBL,
m
18 june, fri
fri1823:00+16nnw3890100 4.4 1006197
02:00+11nnw5138481 0.1 1008278
05:00+11nnw6127721 0.9 1010404
08:00+12n6116630 0.0 1012767
11:00+15n9114766 0.0 10141599
14:00+17n810365 0.0 10152391
17:00+18n7103812 0.0 10152942
20:00+14nnw49500 0.0 1017264
19 june, sat
sat1923:00+10wnw474916 0.0 1018108
02:00+8nw495758 0.0 1018149
05:00+7nw36665 0.0 1019106
08:00+13nw5854100 0.0 1019604
11:00+12w4866100 0.0 1017764
14:00+14w7969100 0.0 1015770
17:00+16wnw6973100 0.0 1014992
20:00+14w4119177 0.4 1012524
20 june, sun
sun2023:00+13wsw4893100 0.4 1011240
02:00+13sw3695100 0.1 1008150
05:00+15w5149726 1.0 1005519
08:00+19nw81479100 0.0 10051329
11:00+20nw10154768 0.2 10051859
14:00+20nw11173626 0.0 10072404
17:00+18nnw1119381 0.0 10092464
20:00+15n122243100 0.0 10112104
21 june, mon
mon2123:00+12nnw101762100 0.0 10141196
02:00+12nnw91660100 0.0 10161088
05:00+12nnw8146278 0.0 1018748
08:00+13n711626 0.0 1020734
11:00+17n68504 0.0 10211445
14:00+19nnw56365 0.0 10201852
17:00+20nnw353290 0.0 10191915
20:00+18sse2252100 0.0 101712
22 june, tue
tue2223:00+16sw3946100 0.0 1016214
02:00+14sw496368 0.0 1013202
05:00+14wsw51191100 0.0 1011315
08:00+20wnw7117596 0.0 1009760
11:00+20nnw91279100 0.8 10091106
14:00+17n91266100 0.4 10121082
17:00+12n91471100 0.5 10161433
20:00+14n917588 0.0 10181796